TimeEST,TemperatureF,Dew PointF,Humidity,Sea Level PressureIn,VisibilityMPH,Wind Direction,Wind SpeedMPH,Gust SpeedMPH,PrecipitationIn,Events,Conditions,WindDirDegrees,DateUTC
12:01 AM,27.1,25.0,92,30.44,10.0,Calm,Calm,-,N/A,,Clear,0,2012-11-15 05:01:00
12:39 AM,24.4,23.0,94,30.44,7.0,Calm,Calm,-,N/A,,Clear,0,2012-11-15 05:39:00
12:53 AM,25.9,24.4,94,30.43,7.0,Calm,Calm,-,N/A,,Clear,0,2012-11-15 05:53:00
1:13 AM,24.6,23.0,94,30.43,7.0,Calm,Calm,-,N/A,,Clear,0,2012-11-15 06:13:00
1:33 AM,25.5,24.3,95,30.41,7.0,SE,3.5,-,N/A,,Clear,140,2012-11-15 06:33:00
1:53 AM,27.3,25.5,93,30.41,7.0,SE,3.5,-,N/A,,Clear,140,2012-11-15 06:53:00
2:15 AM,28.4,25.9,90,30.41,7.0,SE,4.6,-,N/A,,Clear,140,2012-11-15 07:15:00
2:35 AM,28.8,25.9,89,30.41,7.0,Calm,Calm,-,N/A,,Clear,0,2012-11-15 07:35:00
2:50 AM,27.3,24.4,89,30.41,7.0,Calm,Calm,-,N/A,,Clear,0,2012-11-15 07:50:00
3:11 AM,25.7,24.3,94,30.41,7.0,Calm,Calm,-,N/A,,Clear,0,2012-11-15 08:11:00
3:33 AM,24.8,23.2,94,30.40,5.0,Calm,Calm,-,N/A,,Clear,0,2012-11-15 08:33:00
3:53 AM,23.5,22.3,95,30.40,5.0,Calm,Calm,-,N/A,,Clear,0,2012-11-15 08:53:00
4:13 AM,22.8,21.7,96,30.39,4.0,Calm,Calm,-,N/A,,Clear,0,2012-11-15 09:13:00
4:33 AM,23.7,22.8,96,30.39,4.0,Calm,Calm,-,N/A,,Clear,0,2012-11-15 09:33:00
4:53 AM,22.8,21.7,96,30.39,3.0,Calm,Calm,-,N/A,,Clear,0,2012-11-15 09:53:00
5:13 AM,23.7,23.0,97,30.39,4.0,Calm,Calm,-,N/A,,Clear,0,2012-11-15 10:13:00
5:34 AM,22.8,22.1,97,30.40,4.0,Calm,Calm,-,N/A,,Clear,0,2012-11-15 10:34:00
5:54 AM,23.0,22.1,96,30.39,2.5,Calm,Calm,-,N/A,,Clear,0,2012-11-15 10:54:00
6:14 AM,22.3,21.4,96,30.39,4.0,Calm,Calm,-,N/A,,Clear,0,2012-11-15 11:14:00
6:34 AM,23.7,23.2,98,30.39,3.0,Calm,Calm,-,N/A,,Clear,0,2012-11-15 11:34:00
7:14 AM,23.2,22.8,99,30.40,4.0,Calm,Calm,-,N/A,,Clear,0,2012-11-15 12:14:00
7:34 AM,23.4,23.0,99,30.40,3.0,Calm,Calm,-,N/A,,Clear,0,2012-11-15 12:34:00
7:54 AM,23.0,22.6,99,30.40,2.5,Calm,Calm,-,N/A,,Clear,0,2012-11-15 12:54:00
8:14 AM,23.9,23.5,99,30.41,3.0,Calm,Calm,-,N/A,,Clear,0,2012-11-15 13:14:00
8:35 AM,25.7,25.3,99,30.41,3.0,Calm,Calm,-,N/A,,Clear,0,2012-11-15 13:35:00
8:55 AM,27.5,27.0,98,30.41,3.0,Calm,Calm,-,N/A,,Clear,0,2012-11-15 13:55:00
9:15 AM,29.8,29.1,97,30.41,3.0,Calm,Calm,-,N/A,,Clear,0,2012-11-15 14:15:00
9:35 AM,32.0,30.9,96,30.40,4.0,Calm,Calm,-,N/A,,Clear,0,2012-11-15 14:35:00
9:55 AM,33.3,30.2,89,30.40,5.0,SSE,3.5,-,N/A,,Clear,150,2012-11-15 14:55:00
10:15 AM,34.5,30.4,85,30.40,7.0,SSE,3.5,-,N/A,,Clear,160,2012-11-15 15:15:00
10:35 AM,35.8,31.5,84,30.41,7.0,South,3.5,-,N/A,,Clear,180,2012-11-15 15:35:00
10:55 AM,37.4,31.3,79,30.40,7.0,South,4.6,-,N/A,,Clear,170,2012-11-15 15:55:00
11:11 AM,37.8,30.9,76,30.40,10.0,South,4.6,-,N/A,,Clear,180,2012-11-15 16:11:00
11:31 AM,38.7,31.3,75,30.39,7.0,South,3.5,-,N/A,,Clear,170,2012-11-15 16:31:00
11:51 AM,39.2,30.7,72,30.39,10.0,South,4.6,-,N/A,,Clear,180,2012-11-15 16:51:00
12:11 PM,40.1,30.4,68,30.38,10.0,SW,8.1,-,N/A,,Clear,220,2012-11-15 17:11:00
12:31 PM,40.1,30.2,68,30.37,10.0,South,6.9,-,N/A,,Clear,190,2012-11-15 17:31:00
12:51 PM,40.8,30.6,67,30.37,10.0,SSE,5.8,-,N/A,,Clear,160,2012-11-15 17:51:00
1:11 PM,41.2,30.7,66,30.36,10.0,SSW,6.9,-,N/A,,Clear,200,2012-11-15 18:11:00
1:31 PM,41.2,30.7,66,30.36,10.0,SW,4.6,-,N/A,,Clear,220,2012-11-15 18:31:00
1:51 PM,41.4,30.0,64,30.35,10.0,SW,3.5,-,N/A,,Clear,220,2012-11-15 18:51:00
2:12 PM,42.1,30.4,63,30.34,10.0,South,3.5,-,N/A,,Clear,190,2012-11-15 19:12:00
2:32 PM,42.3,29.8,61,30.34,10.0,SW,4.6,-,N/A,,Clear,230,2012-11-15 19:32:00
2:52 PM,42.6,29.7,60,30.34,10.0,SW,4.6,-,N/A,,Clear,220,2012-11-15 19:52:00
3:12 PM,42.4,30.0,61,30.33,10.0,South,4.6,-,N/A,,Clear,190,2012-11-15 20:12:00
3:32 PM,42.6,29.5,60,30.33,10.0,South,3.5,-,N/A,,Clear,180,2012-11-15 20:32:00
3:52 PM,42.4,29.3,60,30.33,10.0,SSW,5.8,-,N/A,,Clear,200,2012-11-15 20:52:00
4:12 PM,41.9,30.2,63,30.34,10.0,South,3.5,-,N/A,,Clear,180,2012-11-15 21:12:00
4:32 PM,41.2,30.2,65,30.34,10.0,SSW,4.6,-,N/A,,Clear,200,2012-11-15 21:32:00
4:53 PM,39.2,30.2,70,30.33,10.0,South,3.5,-,N/A,,Clear,190,2012-11-15 21:53:00
5:13 PM,38.3,29.8,72,30.34,7.0,South,3.5,-,N/A,,Clear,190,2012-11-15 22:13:00
5:33 PM,34.0,28.9,82,30.34,10.0,Calm,Calm,-,N/A,,Clear,0,2012-11-15 22:33:00
5:53 PM,32.0,28.4,87,30.34,7.0,Calm,Calm,-,N/A,,Clear,0,2012-11-15 22:53:00
6:33 PM,32.0,28.6,87,30.34,7.0,Calm,Calm,-,N/A,,Clear,0,2012-11-15 23:33:00
6:53 PM,30.9,28.4,90,30.35,7.0,Calm,Calm,-,N/A,,Clear,0,2012-11-15 23:53:00
7:13 PM,28.6,26.2,91,30.35,7.0,Calm,Calm,-,N/A,,Clear,0,2012-11-16 00:13:00
7:34 PM,28.8,25.9,89,30.35,5.0,Calm,Calm,-,N/A,,Clear,0,2012-11-16 00:34:00
7:54 PM,27.5,25.9,94,30.35,5.0,Calm,Calm,-,N/A,,Clear,0,2012-11-16 00:54:00
8:14 PM,27.7,26.4,95,30.35,5.0,Calm,Calm,-,N/A,,Clear,0,2012-11-16 01:14:00
8:34 PM,28.0,26.4,94,30.35,5.0,Calm,Calm,-,N/A,,Clear,0,2012-11-16 01:34:00
8:54 PM,26.6,25.3,95,30.35,5.0,Calm,Calm,-,N/A,,Clear,0,2012-11-16 01:54:00
9:14 PM,25.7,24.6,96,30.35,4.0,Calm,Calm,-,N/A,,Clear,0,2012-11-16 02:14:00
9:34 PM,26.6,25.5,96,30.36,4.0,Calm,Calm,-,N/A,,Clear,0,2012-11-16 02:34:00
9:54 PM,26.2,25.2,96,30.35,4.0,Calm,Calm,-,N/A,,Clear,0,2012-11-16 02:54:00
10:14 PM,26.4,25.2,95,30.35,4.0,Calm,Calm,-,N/A,,Clear,0,2012-11-16 03:14:00
10:35 PM,26.1,25.3,97,30.36,4.0,Calm,Calm,-,N/A,,Clear,0,2012-11-16 03:35:00
10:55 PM,26.1,25.0,96,30.35,5.0,Calm,Calm,-,N/A,,Clear,0,2012-11-16 03:55:00
11:15 PM,26.1,25.0,96,30.35,4.0,Calm,Calm,-,N/A,,Clear,0,2012-11-16 04:15:00
11:35 PM,26.6,25.3,95,30.35,4.0,Calm,Calm,-,N/A,,Clear,0,2012-11-16 04:35:00
11:54 PM,25.7,24.6,96,30.36,4.0,Calm,Calm,-,N/A,,Clear,0,2012-11-16 04:54:00